Location: Dompnac
(44.5644°N, 4.1026°E)
Time: 17:45:41
(UTC+00:00)

USA 234 - Pass Details

Date: 17 January 2021
Orbit: 1100 x 1107 km, 123.0° (Epoch: 01 March)

Event Time Altitude Azimuth Distance (km) Brightness Sun altitude
Exits shadow 17:19:03 10° 67° (ENE) 2,977 4.8 -8.4°
Reaches altitude 10° 17:19:06 10° 67° (ENE) 2,962 4.8 -8.4°
Maximum altitude 17:24:40 31° 8° (N) 1,822 4.2 -9.3°
Drops below altitude 10° 17:30:15 10° 310° (NW) 2,968 6.0 -10.3°
Sets 17:33:01 0° 300° (WNW) 3,928 6.8 -10.7°
